EW7574 Weather Reports


time (UTC)temp
C
wind
direction
speed
KPH
gust
KPH
rain 1hr
cm
rain 24hr
cm
rain mn
cm
humidity
%
barometer
mb
20260505124556 14 199 11.3 20.9 0.00 0.00 0.00 74 1010.8
20260505123058 14 218 16.1 33.8 0.00 0.00 0.00 75 1010.8
20260505121550 13 197 16.1 29.0 0.00 0.00 0.00 76 1010.8
20260505120104 13 173 12.9 29.0 0.00 0.00 0.00 77 1010.8
20260505114540 13 194 11.3 20.9 0.00 0.00 0.00 79 1010.9
20260505113035 12 219 12.9 32.2 0.00 0.00 0.00 80 1010.9
20260505111535 12 230 11.3 27.4 0.00 0.00 0.00 81 1010.8
20260505101522 11 204 8.0 16.1 0.00 0.00 0.00 83 1010.9
20260505100022 11 237 11.3 22.5 0.00 0.00 0.00 83 1010.8
20260505094519 11 195 9.7 19.3 0.00 0.00 0.00 83 1010.6
20260505093017 10 188 6.4 16.1 0.00 0.00 0.00 83 1010.6
20260505091515 10 197 4.8 14.5 0.00 0.00 0.00 83 1010.5
20260505090015 10 209 4.8 14.5 0.00 0.00 0.00 83 1010.6
20260505084513 11 258 6.4 17.7 0.00 0.00 0.00 83 1010.5
20260505083011 11 180 4.8 19.3 0.00 0.00 0.00 83 1010.6
20260505081514 11 176 9.7 19.3 0.00 0.00 0.00 83 1010.8
20260505080009 11 219 8.0 22.5 0.00 0.00 0.00 83 1010.8
20260505074509 11 216 9.7 19.3 0.00 0.00 0.00 83 1010.8
20260505073008 11 227 6.4 16.1 0.00 0.00 0.00 82 1010.9
20260505071507 11 219 8.0 19.3 0.00 0.00 0.00 83 1010.8
20260505070007 11 225 3.2 11.3 0.00 0.00 0.00 82 1010.9
20260505064506 11 205 6.4 14.5 0.00 0.00 0.00 83 1010.8
20260505063007 11 206 4.8 17.7 0.00 0.00 0.00 83 1010.9
20260505061504 11 210 8.0 16.1 0.00 0.00 0.00 82 1010.9
20260505060003 11 197 8.0 20.9 0.00 0.00 0.00 82 1010.8
20260505054505 11 215 8.0 20.9 0.00 0.00 0.00 81 1010.9
20260505053001 11 217 9.7 20.9 0.00 0.00 0.00 81 1010.9
20260505051701 11 197 9.7 17.7 0.00 0.00 0.00 80 1011.0
20260505050104 11 212 8.0 19.3 0.00 0.00 0.00 80 1010.9
20260505041602 11 202 6.4 20.9 0.00 0.00 0.00 78 1011.0
20260505040059 11 224 11.3 29.0 0.00 0.00 0.00 77 1011.3
20260505034606 11 159 11.3 32.2 0.00 0.00 0.00 77 1011.4
20260505033049 11 185 9.7 22.5 0.00 0.00 0.00 76 1011.2
20260505031548 11 236 8.0 22.5 0.00 0.00 0.00 75 1011.2
20260505030054 11 234 11.3 27.4 0.00 0.00 0.00 74 1011.3
20260505024559 11 235 11.3 25.7 0.00 0.00 0.00 74 1011.3
20260505023047 11 236 8.0 25.7 0.00 0.00 0.00 73 1011.3
20260505021546 11 250 16.1 35.4 0.00 0.00 0.00 73 1011.2
20260505020059 11 248 12.9 29.0 0.00 0.00 0.00 73 1011.1
20260505014543 11 221 14.5 37.0 0.00 0.00 0.00 73 1011.0
20260505013043 12 249 11.3 37.0 0.00 0.00 0.00 72 1010.7
20260505011539 12 218 12.9 32.2 0.00 0.00 0.00 72 1010.5
20260505010043 12 212 11.3 30.6 0.00 0.00 0.00 72 1010.4
20260505004556 12 204 14.5 40.2 0.00 0.00 0.00 71 1010.2
20260505003037 12 304 14.5 29.0 0.00 0.00 0.00 70 1009.9
20260505001539 12 199 11.3 38.6 0.00 0.00 0.00 68 1009.8
20260505000037 12 192 11.3 27.4 0.00 0.00 0.00 67 1009.6
20260504234536 12 202 11.3 22.5 0.00 0.00 0.00 67 1009.3
20260504233035 12 215 12.9 27.4 0.00 0.00 0.00 67 1009.3
20260504231540 12 200 12.9 33.8 0.00 0.00 0.00 67 1009.1
20260504230036 12 178 11.3 27.4 0.00 0.00 0.00 67 1009.0
20260504224539 13 193 17.7 37.0 0.00 0.00 0.00 66 1008.9
20260504223033 13 225 16.1 32.2 0.00 0.00 0.00 65 1008.8
20260504221538 13 205 14.5 29.0 0.00 0.00 0.00 64 1009.0
20260504220032 13 198 14.5 33.8 0.00 0.00 0.00 62 1009.1
20260504214531 14 211 12.9 25.7 0.00 0.00 0.00 61 1009.2
20260504213038 14 272 14.5 40.2 0.00 0.00 0.00 60 1009.1
20260504211534 15 240 16.1 35.4 0.00 0.00 0.00 57 1009.0
20260504210030 15 214 14.5 37.0 0.00 0.00 0.00 55 1009.0
20260504204533 16 196 12.9 40.2 0.00 0.00 0.00 52 1008.7
20260504203030 16 238 16.1 32.2 0.00 0.00 0.00 52 1008.8
20260504201529 16 239 12.9 33.8 0.00 0.00 0.00 52 1008.7
20260504200028 16 199 14.5 38.6 0.00 0.00 0.00 48 1008.7
20260504194527 17 201 14.5 37.0 0.00 0.00 0.00 46 1008.4
20260504193027 17 238 17.7 38.6 0.00 0.00 0.00 41 1008.3
20260504191537 17 215 22.5 43.5 0.00 0.00 0.00 43 1008.6
20260504190025 17 271 17.7 45.1 0.00 0.00 0.00 45 1008.6
20260504184539 17 257 14.5 37.0 0.00 0.00 0.00 47 1008.7
20260504183024 17 144 14.5 33.8 0.00 0.00 0.00 47 1008.7
20260504181523 17 235 11.3 32.2 0.00 0.00 0.00 46 1008.3
20260504180023 17 259 19.3 38.6 0.00 0.00 0.00 42 1008.5
20260504174521 17 257 20.9 41.8 0.00 0.00 0.00 40 1008.8
20260504173018 18 205 12.9 48.3 0.00 0.00 0.00 39 1008.8
20260504171517 18 282 16.1 32.2 0.00 0.00 0.00 39 1008.8